STARLINK-1653, 46352

Orbit data source: Space-Track

STARLINK-1653, 46352 is a payload satellite owned by SpaceX/Seattle (US) in LEO that was launched on Thu, 03 Sep 2020 UTC via an FALCON 9 launch vehicle from the Air Force Eastern Test Range (AFETR). Payload-class satellites include a variety of spacecraft equipped with specific instruments for various scientific and technological missions. These include communications satellites like Starlink; space stations such as the ISS; scientific satellites like the Hubble; Earth observation satellites from companies like Planet Labs, Umbra, and HawkEye 360; GPS; miniature CubeSats for education and research; and military/defense satellites.

Loading next visibility...
Identifier
46352, 2020-062AD
Orbit
LEO
Country
Flag of USUS
Related business
Manufacturer
SpaceX/Seattle
Mission
Partially operational Commercial Communications
Bus & Motor
STARLINK, Unknown motor
Mass
260 kg wet, ~248 kg dry
Launch date (UTC)
2020-09-03 (6 years ago)
Launch vehicle
FALCON 9
Launch site
Air Force Eastern Test Range (AFETR)
Object type
Payload
Rocket body
Debris
Shape & HBR
Box + 1 Pan, 10.1 m
Radar Cross Section
13.562 m², Large (>1 m²)

Expand to show TLE details & history
Last TLE update: 2 hours ago

TLE from 2 hours ago
0 STARLINK-1653
1 46352U 20062AD  26165.91670139  .00122150  00000-0  66385-3 0  9998
2 46352  53.0357 202.3533 0003638 298.6659  29.6909 15.79140123  5933
Epoch: 2026-06-14T22:00Z
TLE epoch observation values (Epoch: 2026-06-14T22:00:03.000Z)
Latitude
-24.96812°
Longitude
-51.26235°
Altitude
338.009 km
Speed
7.707 km/s
True Right ascension
12h 07m 50s
True Declination
-24° 49' 43"
Sunlit
Object was in daylight at epoch
Visualization orbit readout
Latitude
Unknown
Longitude
Unknown
Altitude
Unknown
Speed
Unknown
Apparent Right ascension
Unknown
Apparent Declination
Unknown
Sunlit
N/A
Visualization observer readout
Local Sidereal Time
10:47:49
Azimuth
Unknown
Elevation
Unknown
Doppler factor
Unknown
Orbital elements
Apogee altitude
335.6 km
Perigee altitude
330.716 km
Semi-major axis
6,711.295 km
Eccentricity
0.00036
Inclination
53.0357°
RAAN
202.3533°
Arg. of periapsis
298.6659°
True anomaly
29.71156°
Mean anomaly
29.6909°
Eccentric anomaly
29.70123°
Mean motion
3.9476 °/min
Orbital period
91.19 mins
BSTAR
0.00066385
Loading maneuver chart data...
Computing Atmospheric mass density...

Documentation

Showing up to 5 results
|